[[{"header":{"parameterUnit":"m.s-1","parameterCategory":1,"la1":30.2991,"la2":30.254,"lo1":-89.0895,"lo2":-89.0444,"dy":0.0017,"dx":0.0017,"nx":28,"ny":28,"refTime":"2024-12-31T09:00:00:Z","depth":0,"parameterNumber":2,"parameterNumberName":"U-component_of_WINDS"},"data":[0,0,0,0,0,0,0,0,0,0,0,0,0,0,0,0,0,0,0,0,0,0,0,0,0,0,0,0,0,0,0,0,0,0,0,0,0,0,0,0,0,0,0,0,0,0,0,0,0,0,0,0,0,0,0,0,0,0,2.4648,2.4649,0,2.4709,2.4709,2.471,2.4675,2.4673,2.4671,2.4669,2.4739,2.4743,2.4746,0,0,0,0,0,0,0,0,0,0,0,0,0,2.451,2.4512,2.4648,2.4649,2.465,2.4709,2.4709,2.471,2.4675,2.4673,2.4671,2.4669,2.4738,2.4742,2.4747,0,0,0,0,0,0,0,0,0,0,0,0,0,2.457,2.4513,2.4648,2.4639,2.4639,2.4708,2.4709,2.4711,2.4675,2.4673,2.467,2.4668,2.4737,2.4742,2.4747,2.4832,0,0,2.4763,2.4765,0,0,0,0,0,0,0,0,2.4567,2.4575,2.4639,2.464,2.4639,2.4681,2.4686,2.4751,2.4676,2.4662,2.4669,2.4666,2.4723,2.4729,2.4746,2.4835,2.4838,2.4764,2.4767,2.4769,2.477,0,0,0,0,0,0,0,2.4563,2.4573,2.4672,2.464,2.464,2.4634,2.464,2.4698,2.4706,2.4663,2.466,2.4667,2.4722,2.4741,2.4748,2.4839,2.4763,2.4768,2.4771,2.4773,2.5003,2.5006,0,0,0,0,0,0,2.4558,2.4569,2.467,2.4674,2.4596,2.4639,2.4645,2.4671,2.4706,2.4708,2.467,2.4666,2.4734,2.4742,2.475,2.4853,2.4769,2.4774,2.4777,2.5,2.5004,2.5007,0,0,0,0,0,0,2.4555,2.4567,2.4668,2.4621,2.4633,2.4644,2.4673,2.4673,2.4692,2.4711,2.4713,2.4687,2.4732,2.4743,2.4812,2.4855,2.4776,2.4781,2.4997,2.5001,2.5005,2.5059,0,0,0,0,0,0,2.4551,2.4566,2.4597,2.4622,2.4636,2.4726,2.4675,2.4676,2.47,2.4696,2.4728,2.4731,2.4731,2.4804,2.4817,2.4861,2.4785,2.4993,2.4999,2.5004,2.5054,2.5065,2.5075,0,0,0,0,0,2.4547,2.4611,2.4598,2.4611,2.4674,2.4729,2.4737,2.4734,2.4704,2.4736,2.4748,2.473,2.4848,2.4811,2.4826,2.4872,2.499,2.4997,2.5004,2.5049,2.5063,2.5074,0,0,0,0,0,0,2.4593,2.4614,2.4601,2.4674,2.47,2.4723,2.4763,2.4748,2.4785,2.4779,2.4775,2.4783,2.4856,2.487,2.4829,2.4957,2.4915,2.4925,2.4945,2.4958,2.4968,2.4964,2.4789,0,0,0,0,0,2.4611,2.4652,2.4669,2.4733,2.4746,2.4752,2.4776,2.4771,2.4798,2.481,2.4827,2.4857,2.4901,2.493,2.4971,2.5055,2.5064,2.5094,2.5105,2.5113,2.5123,2.5171,2.5186,2.5029,2.5029,2.5029,0,0,2.4651,2.4667,2.4693,2.4742,2.4761,2.4806,2.4762,2.481,2.4845,2.4818,2.4884,2.4898,2.4931,2.5008,2.5044,2.5023,2.5167,2.5122,2.5128,2.5133,2.5179,2.5194,2.5207,2.5034,2.5033,2.5032,0,0,2.4746,2.4761,2.4816,2.4836,2.4865,2.4869,2.4882,2.4907,2.4915,2.498,2.4962,2.5004,2.5079,2.5104,2.5126,2.5232,2.5217,2.5245,2.5301,2.5348,2.536,2.5371,2.5412,2.5426,2.5254,2.5254,2.5254,0,2.4792,2.4856,2.4847,2.4898,2.4921,2.4896,2.4955,2.4975,2.5017,2.5035,2.5011,2.5106,2.5126,2.521,2.5236,2.5254,2.5272,2.5242,2.5359,2.537,2.538,2.5418,2.5433,2.5258,2.5257,2.5257,2.5257,0,2.4913,2.4958,2.4999,2.5038,2.5066,2.512,2.5123,2.5152,2.5145,2.5153,2.5222,2.5245,2.5291,2.5311,2.5305,2.5395,2.5382,2.5358,2.5316,2.5398,2.5434,2.5449,2.5262,2.5261,2.526,2.5259,0,0,2.504,2.5072,2.5088,2.5106,2.5136,2.5172,2.5227,2.527,2.5297,2.5327,2.5374,2.5438,2.5417,2.5443,2.544,2.5481,2.5566,2.5453,2.5453,2.5475,2.567,2.5689,2.5706,2.5555,2.5558,2.556,2.5668,0,2.5138,2.5229,2.5224,2.5311,2.5355,2.5332,2.538,2.5405,2.5414,2.5454,2.5464,2.5511,2.5478,2.5493,2.5533,2.5547,2.5605,2.5539,2.5603,2.5605,2.5597,2.5724,2.5744,2.5844,2.5682,2.5684,2.5686,0,2.5265,2.5297,2.5389,2.5413,2.5431,2.5474,2.5514,2.5551,2.5581,2.5584,2.5613,2.5603,2.5662,2.5616,2.5698,2.5653,2.5679,2.5691,2.5694,2.5702,2.5652,2.5738,2.5876,2.5892,2.5707,2.5705,2.5704,0,2.5352,2.5418,2.5481,2.5497,2.5527,2.5558,2.5573,2.5599,2.5626,2.5662,2.568,2.5723,2.5747,2.5782,2.5786,2.5752,2.5869,2.5824,2.5877,2.5877,2.5905,2.5903,2.6052,2.5917,2.5917,2.5917,2.5917,0,2.5464,2.5521,2.5521,2.556,2.5625,2.5619,2.5684,2.5696,2.5719,2.5763,2.5747,2.5789,2.5789,2.5834,2.5837,2.5906,2.5917,2.5924,2.5924,2.5926,2.5926,2.5945,2.5939,2.5921,2.592,2.5919,2.5918,0,2.5572,2.5574,2.5642,2.5664,2.5671,2.5718,2.5738,2.5778,2.5784,2.584,2.5853,2.5865,2.5915,2.5922,2.5982,2.5984,2.6068,2.606,2.6058,2.6057,2.6111,2.6107,2.6279,2.6302,2.615,2.6152,2.6153,0,2.5644,2.5688,2.5714,2.5741,2.5756,2.58,2.5826,2.5823,2.5852,2.5889,2.5925,2.5973,2.6012,2.6095,2.6111,2.6158,2.6153,2.621,2.616,2.6161,2.6157,2.6155,2.6161,2.622,2.6222,2.6223,2.6224,0,2.5774,2.5772,2.581,2.5849,2.588,2.5911,2.594,2.5964,2.5964,2.5999,2.6049,2.6079,2.6139,2.619,2.6235,2.6254,2.6241,2.6239,2.6255,2.6259,2.6256,2.6261,2.6087,2.6236,2.6235,2.6234,2.6233,2.6233,2.5868,2.5906,2.5931,2.5974,2.5995,2.6022,2.6061,2.6071,2.6112,2.616,2.6155,2.6212,2.6243,2.6303,2.6324,2.6371,2.6352,2.6374,2.638,2.6386,2.6392,2.6246,2.6379,2.6379,2.6378,2.6378,2.6378,0,2.5999,2.6013,2.6052,2.6093,2.6128,2.6108,2.614,2.6171,2.622,2.6248,2.6286,2.6346,2.6394,2.6414,2.6462,2.6496,2.6491,2.6509,2.6508,2.6513,2.6405,2.6388,2.6512,2.6512,2.6512,2.6512,2.6512,2.6512,2.6071,2.6135,2.6137,2.6212,2.6227,2.628,2.63,2.6327,2.6349,2.6415,2.6454,2.6465,2.6491,2.6541,2.6586,2.6591,2.6611,2.6632,2.6635,2.6534,2.652,2.6507,2.6492,2.6635,2.6636,2.6739,2.674,2.6741]},{"header":{"parameterUnit":"m.s-1","parameterCategory":1,"la1":30.2991,"la2":30.254,"lo1":-89.0895,"lo2":-89.0444,"dy":0.0017,"dx":0.0017,"nx":28,"ny":28,"refTime":"2024-12-31T09:00:00:Z","depth":0,"parameterNumber":3,"parameterNumberName":"V-component_of_WINDS"},"data":[0,0,0,0,0,0,0,0,0,0,0,0,0,0,0,0,0,0,0,0,0,0,0,0,0,0,0,0,0,0,0,0,0,0,0,0,0,0,0,0,0,0,0,0,0,0,0,0,0,0,0,0,0,0,0,0,0,0,-0.8803,-0.8803,0,-0.8803,-0.8803,-0.8803,-0.884,-0.8841,-0.8842,-0.8843,-0.8843,-0.8842,-0.8842,0,0,0,0,0,0,0,0,0,0,0,0,0,-0.8835,-0.8834,-0.8803,-0.8803,-0.8803,-0.8803,-0.8803,-0.8803,-0.884,-0.8841,-0.8842,-0.8843,-0.8844,-0.8843,-0.8841,0,0,0,0,0,0,0,0,0,0,0,0,0,-0.8826,-0.8834,-0.8803,-0.8821,-0.8822,-0.8803,-0.8803,-0.8803,-0.8839,-0.8841,-0.8842,-0.8844,-0.8844,-0.8843,-0.8841,-0.8805,0,0,-0.8837,-0.8837,0,0,0,0,0,0,0,0,-0.8827,-0.8825,-0.8818,-0.882,-0.8821,-0.8823,-0.8815,-0.8804,-0.8839,-0.8833,-0.8843,-0.8844,-0.8835,-0.8835,-0.8832,-0.8805,-0.8805,-0.8837,-0.8836,-0.8836,-0.8835,0,0,0,0,0,0,0,-0.8827,-0.8825,-0.8803,-0.8818,-0.882,-0.883,-0.883,-0.8813,-0.8826,-0.8834,-0.8836,-0.8836,-0.8836,-0.8833,-0.8832,-0.8805,-0.8837,-0.8836,-0.8835,-0.8835,-0.875,-0.8748,0,0,0,0,0,0,-0.8825,-0.8826,-0.8803,-0.8803,-0.8828,-0.8828,-0.8828,-0.8821,-0.8826,-0.8829,-0.8835,-0.8837,-0.8834,-0.8834,-0.8832,-0.8791,-0.8836,-0.8835,-0.8834,-0.8751,-0.8749,-0.8748,0,0,0,0,0,0,-0.8826,-0.8823,-0.8803,-0.8815,-0.8813,-0.8826,-0.8817,-0.882,-0.8817,-0.8827,-0.883,-0.8828,-0.8836,-0.8834,-0.8812,-0.8791,-0.8834,-0.8833,-0.8753,-0.8751,-0.8749,-0.8707,0,0,0,0,0,0,-0.8827,-0.8823,-0.8808,-0.8814,-0.8812,-0.8781,-0.8816,-0.8819,-0.8814,-0.8818,-0.8822,-0.8824,-0.8837,-0.8813,-0.881,-0.879,-0.8832,-0.8755,-0.8752,-0.8749,-0.871,-0.8703,-0.8698,0,0,0,0,0,-0.8828,-0.8796,-0.8808,-0.8805,-0.8795,-0.878,-0.8779,-0.8794,-0.8812,-0.8799,-0.8806,-0.8824,-0.8794,-0.8811,-0.8808,-0.8787,-0.8756,-0.8753,-0.8749,-0.8713,-0.8705,-0.8698,0,0,0,0,0,0,-0.8787,-0.8797,-0.881,-0.8779,-0.8779,-0.8786,-0.8769,-0.8785,-0.8779,-0.8783,-0.8802,-0.8802,-0.8777,-0.878,-0.8798,-0.8753,-0.8778,-0.8774,-0.8752,-0.8744,-0.8738,-0.8738,-0.8831,0,0,0,0,0,-0.8775,-0.8762,-0.8772,-0.8744,-0.8743,-0.8756,-0.875,-0.8762,-0.8762,-0.8762,-0.8767,-0.8767,-0.8758,-0.8751,-0.8743,-0.8711,-0.8713,-0.8695,-0.8689,-0.8684,-0.868,-0.8665,-0.8657,-0.8737,-0.8737,-0.8737,0,0,-0.8749,-0.8753,-0.8743,-0.8736,-0.8737,-0.8724,-0.8755,-0.874,-0.8731,-0.876,-0.8739,-0.8743,-0.8744,-0.8717,-0.8705,-0.8719,-0.8659,-0.868,-0.8676,-0.8674,-0.8661,-0.8653,-0.8646,-0.8735,-0.8735,-0.8735,0,0,-0.8695,-0.8696,-0.8674,-0.8675,-0.8676,-0.8685,-0.868,-0.8686,-0.8689,-0.8669,-0.8691,-0.8681,-0.8664,-0.8664,-0.8662,-0.8611,-0.8628,-0.8608,-0.8575,-0.856,-0.8554,-0.8549,-0.8531,-0.8525,-0.8604,-0.8604,-0.8604,0,-0.8662,-0.8643,-0.866,-0.8644,-0.8641,-0.8667,-0.8645,-0.8645,-0.8643,-0.8641,-0.8656,-0.8637,-0.8639,-0.8613,-0.8601,-0.8598,-0.8593,-0.8607,-0.8554,-0.8548,-0.8544,-0.8527,-0.852,-0.8601,-0.8602,-0.8602,-0.8602,0,-0.8604,-0.859,-0.8572,-0.8571,-0.8566,-0.8546,-0.8562,-0.8554,-0.8567,-0.8575,-0.8555,-0.8559,-0.8553,-0.8548,-0.856,-0.8524,-0.8533,-0.855,-0.8577,-0.8533,-0.8518,-0.8512,-0.8598,-0.8599,-0.86,-0.86,0,0,-0.8522,-0.8532,-0.8525,-0.8526,-0.853,-0.8521,-0.8504,-0.8498,-0.8492,-0.849,-0.8477,-0.8463,-0.848,-0.8478,-0.8491,-0.8477,-0.8438,-0.8497,-0.8497,-0.8486,-0.84,-0.8387,-0.8379,-0.8449,-0.8448,-0.8447,-0.84,0,-0.8471,-0.8442,-0.8458,-0.8427,-0.8416,-0.8442,-0.8427,-0.8429,-0.8436,-0.8428,-0.8437,-0.8427,-0.845,-0.8449,-0.8437,-0.8445,-0.8421,-0.8449,-0.8438,-0.8437,-0.8437,-0.8371,-0.8357,-0.8312,-0.8394,-0.8393,-0.8393,0,-0.8406,-0.8403,-0.8371,-0.8379,-0.8375,-0.8361,-0.8359,-0.8351,-0.8354,-0.836,-0.8358,-0.8375,-0.836,-0.8386,-0.8366,-0.8385,-0.8381,-0.8385,-0.8384,-0.8383,-0.8412,-0.8369,-0.8298,-0.8291,-0.8383,-0.8384,-0.8385,0,-0.8351,-0.8339,-0.8319,-0.8318,-0.8327,-0.8317,-0.832,-0.8325,-0.8321,-0.8319,-0.8317,-0.8313,-0.8311,-0.8308,-0.8323,-0.834,-0.8301,-0.8328,-0.8307,-0.8306,-0.8297,-0.8297,-0.8224,-0.8294,-0.8294,-0.8294,-0.8295,0,-0.8292,-0.8271,-0.8294,-0.8281,-0.826,-0.828,-0.8258,-0.8264,-0.8268,-0.8258,-0.828,-0.827,-0.8291,-0.8284,-0.8296,-0.8278,-0.8276,-0.8282,-0.8285,-0.828,-0.8279,-0.8278,-0.8281,-0.8293,-0.8293,-0.8293,-0.8294,0,-0.8226,-0.824,-0.822,-0.8231,-0.8234,-0.8217,-0.8227,-0.8216,-0.8226,-0.8213,-0.8211,-0.8227,-0.8219,-0.8234,-0.8228,-0.8237,-0.8212,-0.822,-0.8211,-0.8213,-0.8191,-0.8193,-0.8114,-0.8106,-0.8181,-0.818,-0.818,0,-0.8187,-0.8172,-0.8182,-0.8177,-0.8179,-0.8171,-0.8168,-0.8187,-0.8183,-0.8186,-0.8175,-0.817,-0.8166,-0.8153,-0.8164,-0.816,-0.8169,-0.8142,-0.8168,-0.8164,-0.8169,-0.817,-0.8169,-0.8136,-0.8135,-0.8134,-0.8134,0,-0.8117,-0.8125,-0.812,-0.8117,-0.8113,-0.8112,-0.8112,-0.8107,-0.8128,-0.8122,-0.8115,-0.8112,-0.8107,-0.8102,-0.8101,-0.8105,-0.8123,-0.8125,-0.812,-0.8115,-0.811,-0.8113,-0.8196,-0.8127,-0.8128,-0.8128,-0.8129,-0.8129,-0.8064,-0.8052,-0.8058,-0.8052,-0.8055,-0.8055,-0.8046,-0.8056,-0.805,-0.8048,-0.806,-0.805,-0.8055,-0.8056,-0.8058,-0.8052,-0.8064,-0.8056,-0.8055,-0.8052,-0.8049,-0.8111,-0.8052,-0.8052,-0.8052,-0.8052,-0.8052,0,-0.7995,-0.8001,-0.7995,-0.7996,-0.7991,-0.8009,-0.8011,-0.8006,-0.7998,-0.8001,-0.7998,-0.799,-0.7986,-0.7997,-0.7994,-0.7987,-0.7995,-0.7985,-0.7986,-0.7987,-0.8038,-0.8043,-0.7979,-0.7979,-0.7979,-0.7979,-0.7979,-0.7979,-0.7959,-0.7941,-0.7951,-0.7935,-0.7941,-0.7932,-0.7932,-0.7933,-0.7936,-0.7927,-0.7924,-0.7931,-0.7938,-0.7936,-0.7933,-0.7937,-0.7935,-0.7923,-0.7929,-0.7976,-0.7983,-0.799,-0.7995,-0.7922,-0.7922,-0.7879,-0.7879,-0.7878]}]]